R/V Knorr Calliope CSV data file  (Time stamps are GMT)
Date, Time_GMT, Depth12, Depth35, Air_Temp, WXT5_Ta, WXT5_Pa, dec_lat, dec_lon, EDO_knt, GPS_COG, GPS_SOG, Gyro, IMET_BPR, IMET_SWR, WXT5_Ri, WXT5_Rc, HRH, WXT5_Ua, WXT5_Dm, WXT5_Sm, SBE45C, SBE45S, SBE45T, Salinity, SSCND, Fluorometer, SSTMP, SSV, Wnd_Dir, TWD_5, Wnd_Spd, TWS_5, HdChkSum=52
2008/04/07, 00:00:30, 140.10, 0.00, -2.22, -1.50, 1027.0, 70.8658380, 22.3309300, , 296.80, 0.47, 135.40, 1027.97, -0.30, 0.0, 27.87, 55.40, 57.1, 333, 11.2, 33.50980, 34.18690, 5.8478, 34.1869, 33.5098, 129.50, 4.5818, 1467.98, 118.70, 106.0, 10.03, 11.1, 52
2008/04/07, 00:01:29, 141.40, 0.00, -2.14, -1.50, 1027.0, 70.8657550, 22.3306720, , 59.80, 1.89, 135.70, 1028.02, -0.20, 0.0, 27.87, 56.52, 61.8, 334, 14.3, 33.51000, 34.18780, 5.8472, 34.1878, 33.5100, 129.20, 4.5869, 1468.00, 107.90, 101.9, 10.90, 15.0, 52
2008/04/07, 00:02:30, 138.60, 0.00, -2.19, -1.50, 1027.0, 70.8656350, 22.3303070, , 247.70, 0.72, 135.20, 1027.98, -0.30, 0.0, 27.87, 54.41, 58.5, 329, 12.8, 33.51540, 34.18910, 5.8519, 34.1891, 33.5154, 129.50, 4.5903, 1468.02, 111.20, 102.6, 11.73, 13.1, 52
2008/04/07, 00:03:29, 139.50, 0.00, -2.19, -1.50, 1027.0, 70.8655350, 22.3300300, , 61.30, 2.76, 135.40, 1027.94, -0.40, 0.0, 27.87, 55.93, 59.0, 334, 12.6, 33.51720, 34.19040, 5.8526, 34.1904, 33.5172, 127.60, 4.5926, 1468.03, 102.20, 101.1, 10.97, 13.2, 52
2008/04/07, 00:04:29, 138.40, 0.00, -1.97, -1.50, 1027.0, 70.8654300, 22.3297220, , 240.80, 1.41, 136.20, 1027.38, -0.50, 0.0, 27.87, 59.44, 61.8, 333, 11.4, 33.52430, 34.19390, 5.8572, 34.1939, 33.5243, 127.40, 4.5940, 1468.04, 111.50, 108.5, 9.93, 11.5, 52
2008/04/07, 00:05:29, 136.60, 0.00, -2.03, -1.40, 1026.8, 70.8653600, 22.3294400, , 272.20, 1.20, 135.70, 1027.92, 0.10, 0.0, 27.87, 58.99, 63.2, 333, 11.9, 33.53580, 34.19600, 5.8680, 34.1960, 33.5358, 126.40, 4.5943, 1468.04, 119.80, 108.3, 9.69, 11.7, 52
2008/04/07, 00:06:29, 137.10, 0.00, -2.06, -1.40, 1026.9, 70.8652770, 22.3291720, , 68.20, 0.47, 134.50, 1028.08, -0.20, 0.0, 27.87, 55.91, 61.7, 336, 12.6, 33.54540, 34.19680, 5.8778, 34.1968, 33.5454, 124.00, 4.5945, 1468.05, 115.60, 106.7, 10.37, 12.5, 52
2008/04/07, 00:07:29, 136.80, 0.00, -2.03, -1.40, 1026.8, 70.8651880, 22.3289380, , 222.20, 1.95, 134.80, 1027.86, -0.30, 0.0, 27.87, 57.82, 59.8, 328, 11.7, 33.54950, 34.19920, 5.8801, 34.1992, 33.5495, 124.60, 4.5941, 1468.05, 113.30, 101.2, 9.58, 11.3, 52
2008/04/07, 00:08:29, 136.30, 0.00, -1.94, -1.30, 1027.2, 70.8650870, 22.3286450, , 220.30, 0.56, 135.00, 1027.90, -0.10, 0.0, 27.87, 58.19, 62.2, 328, 13.1, 33.55760, 34.19910, 5.8892, 34.1991, 33.5576, 123.40, 4.5935, 1468.04, 105.30, 101.1, 9.83, 12.9, 52
2008/04/07, 00:09:29, 135.40, 0.00, -1.97, -1.30, 1026.8, 70.8650020, 22.3283680, , 30.10, 1.16, 130.70, 1027.92, -0.10, 0.0, 27.87, 55.21, 58.4, 332, 11.5, 33.55150, 34.19790, 5.8835, 34.1979, 33.5515, 124.30, 4.5929, 1468.04, 100.80, 95.9, 12.03, 12.3, 52
2008/04/07, 00:10:30, 136.30, 0.00, -2.06, -1.40, 1026.8, 70.8649030, 22.3281170, , 22.70, 1.16, 126.90, 1027.65, -0.40, 0.0, 27.87, 56.36, 60.5, 339, 12.1, 33.54840, 34.19870, 5.8793, 34.1987, 33.5484, 124.30, 4.5919, 1468.04, 102.50, 97.8, 11.35, 13.3, 52
2008/04/07, 00:11:30, 136.20, 0.00, -2.11, -1.40, 1026.8, 70.8648330, 22.3279880, , 203.00, 0.85, 125.70, 1027.90, -0.40, 0.0, 27.87, 56.97, 59.7, 339, 12.0, 33.54770, 34.19820, 5.8790, 34.1982, 33.5477, 124.00, 4.5907, 1468.03, 113.40, 101.0, 9.36, 12.0, 52
2008/04/07, 00:12:29, 135.50, 0.00, -2.03, -1.40, 1026.9, 70.8647880, 22.3278930, , 233.70, 0.89, 126.70, 1027.87, -0.30, 0.0, 27.87, 57.61, 60.1, 335, 11.1, 33.54280, 34.19650, 5.8752, 34.1965, 33.5428, 125.90, 4.5897, 1468.03, 123.20, 102.3, 9.69, 10.7, 52
2008/04/07, 00:13:29, 136.30, 0.00, -2.14, -1.40, 1027.0, 70.8647400, 22.3277870, , 216.60, 0.93, 125.80, 1027.95, -0.50, 0.0, 27.87, 58.43, 61.1, 337, 12.2, 33.54010, 34.19620, 5.8725, 34.1962, 33.5401, 125.60, 4.5889, 1468.02, 108.20, 96.4, 10.50, 12.8, 52
2008/04/07, 00:14:29, 284.90, 0.00, -2.03, -1.40, 1026.8, 70.8646630, 22.3276170, , 218.30, 1.33, 126.60, 1027.88, -0.40, 0.0, 27.87, 57.64, 60.6, 335, 13.4, 33.53940, 34.19540, 5.8726, 34.1954, 33.5394, 126.40, 4.5889, 1468.02, 106.90, 96.5, 10.30, 13.5, 52
2008/04/07, 00:15:30, 135.60, 0.00, -1.97, -1.40, 1026.9, 70.8645650, 22.3273580, , 54.80, 1.72, 125.30, 1027.93, -0.20, 0.0, 27.87, 57.10, 61.6, 336, 12.4, 33.54000, 34.19420, 5.8744, 34.1942, 33.5400, 128.30, 4.5890, 1468.02, 97.80, 94.5, 11.30, 12.4, 52
2008/04/07, 00:16:30, 135.70, 0.00, -2.06, -1.40, 1026.8, 70.8644630, 22.3271550, , 223.40, 1.88, 125.00, 1027.88, -0.40, 0.0, 27.87, 57.40, 59.7, 338, 12.6, 33.53690, 34.19370, 5.8715, 34.1937, 33.5369, 125.60, 4.5896, 1468.02, 117.40, 104.0, 10.43, 12.7, 52
2008/04/07, 00:17:29, 134.30, 0.00, -1.97, -1.40, 1026.9, 70.8643800, 22.3269730, , 278.70, 1.39, 126.80, 1027.86, -0.20, 0.0, 27.87, 56.20, 57.4, 334, 13.2, 33.53490, 34.19290, 5.8700, 34.1929, 33.5349, 127.10, 4.5903, 1468.02, 102.10, 94.5, 11.51, 14.0, 52
2008/04/07, 00:18:29, 133.70, 0.00, -1.97, -1.40, 1026.9, 70.8642500, 22.3266630, , 222.00, 0.79, 125.70, 1027.89, -0.40, 0.0, 27.87, 56.73, 57.9, 328, 11.6, 33.53170, 34.19180, 5.8675, 34.1918, 33.5317, 128.00, 4.5907, 1468.03, 96.20, 88.9, 10.09, 11.6, 52
2008/04/07, 00:19:29, 133.20, 0.00, -2.06, -1.40, 1026.9, 70.8641420, 22.3264520, , 43.80, 0.50, 125.40, 1027.83, -0.40, 0.0, 27.87, 55.91, 59.8, 335, 12.3, 33.53100, 34.19200, 5.8665, 34.1920, 33.5310, 128.60, 4.5910, 1468.03, 102.30, 97.7, 9.91, 11.9, 52
2008/04/07, 00:20:29, 136.40, 0.00, -2.03, -1.40, 1026.9, 70.8640670, 22.3262820, , 232.50, 0.97, 125.10, 1028.01, -0.60, 0.0, 27.87, 53.90, 61.0, 339, 13.8, 33.52950, 34.19120, 5.8657, 34.1912, 33.5295, 128.60, 4.5909, 1468.03, 103.40, 100.1, 11.66, 14.3, 52
2008/04/07, 00:21:30, 131.70, 0.00, -2.11, -1.50, 1026.8, 70.8639900, 22.3261050, , 215.80, 2.66, 125.00, 1027.58, -0.50, 0.0, 27.87, 53.63, 57.2, 339, 12.5, 33.53360, 34.19160, 5.8699, 34.1916, 33.5336, 131.30, 4.5898, 1468.02, 117.30, 104.7, 10.25, 12.0, 52
2008/04/07, 00:22:30, 133.30, 0.00, -2.11, -1.50, 1026.8, 70.8639050, 22.3259070, , 205.20, 0.84, 125.90, 1027.82, -0.50, 0.0, 27.87, 54.27, 58.2, 336, 11.5, 33.53780, 34.19210, 5.8741, 34.1921, 33.5378, 128.00, 4.5886, 1468.02, 118.90, 101.8, 10.12, 11.3, 52
2008/04/07, 00:23:30, 132.60, 0.00, -2.00, -1.50, 1027.0, 70.8638350, 22.3257500, , 24.30, 1.26, 125.70, 1027.86, -0.40, 0.0, 27.87, 56.36, 59.9, 337, 12.0, 33.53580, 34.19120, 5.8727, 34.1912, 33.5358, 129.80, 4.5880, 1468.01, 109.30, 97.7, 9.48, 11.9, 52
2008/04/07, 00:24:30, 132.30, 0.00, -2.11, -1.50, 1026.8, 70.8637630, 22.3256030, , 43.00, 0.45, 126.70, 1027.75, -0.10, 0.0, 27.87, 55.37, 58.5, 334, 11.5, 33.53740, 34.19230, 5.8734, 34.1923, 33.5374, 128.90, 4.5880, 1468.01, 108.80, 96.1, 10.41, 11.6, 52
2008/04/07, 00:25:30, 133.30, 0.00, -2.08, -1.50, 1027.1, 70.8636820, 22.3254280, , 246.40, 0.79, 127.20, 1027.65, -0.30, 0.0, 27.87, 57.61, 62.0, 329, 11.9, 33.54530, 34.19190, 5.8826, 34.1919, 33.5453, 127.60, 4.5874, 1468.01, 110.90, 95.1, 10.34, 12.5, 52
2008/04/07, 00:26:29, 132.60, 0.00, -2.11, -1.40, 1026.9, 70.8635700, 22.3251630, , 75.40, 0.57, 118.10, 1027.81, -0.20, 0.0, 27.87, 54.81, 60.5, 338, 11.4, 33.54250, 34.19210, 5.8792, 34.1921, 33.5425, 127.10, 4.5871, 1468.01, 94.40, 92.8, 10.45, 11.6, 52
2008/04/07, 00:27:29, 132.90, 0.00, -2.11, -1.40, 1027.0, 70.8634720, 22.3250420, , 106.80, 0.73, 119.30, 1027.83, -0.10, 0.0, 27.87, 54.89, 57.8, 334, 11.7, 33.54210, 34.19150, 5.8794, 34.1915, 33.5421, 129.20, 4.5867, 1468.01, 105.20, 88.0, 9.69, 11.8, 52
2008/04/07, 00:28:29, 132.30, 0.00, -2.03, -1.40, 1026.9, 70.8633780, 22.3249020, , 223.40, 0.53, 117.00, 1027.87, -0.50, 0.0, 27.87, 55.83, 59.4, 340, 10.9, 33.53930, 34.19040, 5.8773, 34.1904, 33.5393, 128.00, 4.5859, 1468.00, 100.90, 91.8, 9.81, 11.1, 52
2008/04/07, 00:29:29, 132.00, 0.00, -1.78, -1.40, 1026.8, 70.8633080, 22.3247870, , 3.10, 0.88, 117.40, 1027.55, -0.10, 0.0, 27.87, 59.54, 62.6, 330, 10.0, 33.54490, 34.19060, 5.8835, 34.1906, 33.5449, 127.40, 4.5856, 1468.00, 103.50, 82.0, 9.54, 10.1, 52
2008/04/07, 00:30:29, 133.00, 0.00, -1.80, -1.20, 1026.9, 70.8632350, 22.3246620, , 153.60, 1.07, 119.20, 1027.84, 0.10, 0.0, 27.87, 58.85, 61.7, 334, 11.4, 33.53820, 34.19080, 5.8757, 34.1908, 33.5382, 127.60, 4.5854, 1468.00, 103.60, 91.3, 8.95, 11.5, 52
2008/04/07, 00:31:29, 132.40, 0.00, -1.97, -1.10, 1026.7, 70.8631820, 22.3245530, , 32.90, 0.60, 118.80, 1027.82, -0.10, 0.0, 27.87, 55.59, 61.0, 337, 11.7, 33.53910, 34.19040, 5.8772, 34.1904, 33.5391, 129.20, 4.5855, 1468.00, 107.80, 91.6, 10.10, 12.0, 52
2008/04/07, 00:32:29, 131.50, 0.00, -2.00, -1.30, 1026.9, 70.8630720, 22.3243900, , 207.30, 1.58, 117.40, 1027.79, -0.30, 0.0, 27.87, 55.08, 58.8, 338, 12.4, 33.53760, 34.19050, 5.8754, 34.1905, 33.5376, 127.60, 4.5858, 1468.00, 104.50, 96.3, 9.99, 12.0, 52
2008/04/07, 00:33:29, 131.70, 0.00, -1.75, -1.30, 1026.9, 70.8630130, 22.3242880, , 117.20, 0.90, 117.10, 1027.58, -0.50, 0.0, 27.87, 58.56, 61.4, 349, 10.4, 33.53610, 34.19010, 5.8741, 34.1901, 33.5361, 128.60, 4.5858, 1468.00, 108.70, 101.9, 9.64, 10.1, 52
2008/04/07, 00:34:30, 130.90, 0.00, -1.86, -1.30, 1027.0, 70.8630000, 22.3242800, , 214.60, 2.03, 118.40, 1027.79, -0.10, 0.0, 27.87, 57.50, 60.5, 339, 11.5, 33.53650, 34.19010, 5.8746, 34.1901, 33.5365, 130.10, 4.5858, 1468.00, 123.70, 97.6, 9.35, 11.0, 52
2008/04/07, 00:35:29, 133.10, 0.00, -2.06, -1.20, 1026.7, 70.8629080, 22.3241350, , 21.80, 2.36, 127.10, 1027.80, -0.30, 0.0, 27.87, 54.11, 58.0, 330, 11.2, 33.53130, 34.18930, 5.8696, 34.1893, 33.5313, 128.60, 4.5858, 1468.00, 100.90, 90.2, 10.81, 11.9, 52
2008/04/07, 00:36:29, 131.80, 0.00, -2.06, -1.30, 1026.8, 70.8628080, 22.3238700, , 212.70, 1.35, 136.40, 1027.70, -0.40, 0.0, 27.87, 54.41, 58.1, 327, 11.3, 33.53150, 34.18910, 5.8699, 34.1891, 33.5315, 128.30, 4.5854, 1468.00, 105.70, 103.2, 10.28, 11.0, 52
2008/04/07, 00:37:29, 132.70, 0.00, -1.94, -1.40, 1026.9, 70.8627250, 22.3235600, , 189.90, 0.76, 137.80, 1027.81, -0.60, 0.0, 27.87, 56.12, 60.4, 328, 12.6, 33.53550, 34.18980, 5.8737, 34.1898, 33.5355, 127.10, 4.5862, 1468.00, 102.90, 102.2, 10.12, 12.7, 52
2008/04/07, 00:38:29, 132.80, 0.00, -1.97, -1.40, 1026.8, 70.8626380, 22.3231430, , 209.30, 1.36, 138.50, 1027.68, -0.20, 0.0, 27.87, 55.34, 60.2, 338, 13.0, 33.53310, 34.19000, 5.8708, 34.1900, 33.5331, 130.40, 4.5867, 1468.00, 110.00, 115.6, 9.85, 12.5, 52
2008/04/07, 00:39:29, 135.50, 0.00, -2.03, -1.40, 1027.0, 70.8625250, 22.3228270, , 259.90, 1.02, 136.70, 1027.68, -0.30, 0.0, 27.87, 54.84, 58.0, 334, 13.0, 33.52900, 34.18920, 5.8671, 34.1892, 33.5290, 129.50, 4.5877, 1468.01, 104.00, 109.0, 10.07, 12.9, 52
2008/04/07, 00:40:29, 136.40, 0.00, -2.03, -1.40, 1026.9, 70.8624420, 22.3225750, , 246.50, 2.56, 138.70, 1027.76, -0.40, 0.0, 27.87, 56.55, 59.7, 335, 12.9, 33.52560, 34.18900, 5.8635, 34.1890, 33.5256, 127.60, 4.5880, 1468.01, 118.80, 115.7, 10.30, 13.0, 52
2008/04/07, 00:41:29, 136.10, 0.00, -2.06, -1.40, 1027.0, 70.8623520, 22.3222320, , 237.60, 2.27, 137.60, 1027.70, -0.70, 0.0, 27.87, 54.60, 58.5, 333, 11.5, 33.52490, 34.18890, 5.8627, 34.1889, 33.5249, 131.60, 4.5878, 1468.01, 106.90, 110.1, 9.82, 11.1, 52
2008/04/07, 00:42:29, 136.30, 0.00, -2.03, -1.40, 1026.8, 70.8622770, 22.3220000, , 168.70, 0.56, 138.80, 1027.92, -0.50, 0.0, 27.87, 56.65, 60.7, 333, 12.0, 33.52250, 34.18880, 5.8601, 34.1888, 33.5225, 128.90, 4.5875, 1468.01, 111.60, 108.3, 10.02, 12.4, 52
2008/04/07, 00:43:29, 136.60, 0.00, -2.03, -1.30, 1026.9, 70.8622050, 22.3218050, , 218.50, 0.93, 143.90, 1027.60, -0.40, 0.0, 27.87, 55.40, 60.9, 331, 11.5, 33.52180, 34.18940, 5.8588, 34.1894, 33.5218, 127.60, 4.5866, 1468.00, 122.20, 111.2, 9.39, 11.6, 52
2008/04/07, 00:44:29, 136.20, 0.00, -2.03, -1.40, 1026.6, 70.8621280, 22.3214780, , 230.10, 1.52, 143.40, 1027.75, -0.30, 0.0, 27.87, 56.47, 58.1, 326, 10.4, 33.52400, 34.18970, 5.8610, 34.1897, 33.5240, 128.30, 4.5862, 1468.00, 116.60, 109.7, 10.00, 10.6, 52
2008/04/07, 00:45:29, 135.30, 0.00, -2.06, -1.30, 1026.8, 70.8620470, 22.3211180, , 221.60, 0.76, 143.40, 1027.47, -0.50, 0.0, 27.87, 54.54, 60.3, 329, 12.6, 33.52580, 34.18990, 5.8627, 34.1899, 33.5258, 128.30, 4.5847, 1468.00, 101.20, 108.3, 10.52, 12.8, 52
2008/04/07, 00:46:30, 135.60, 0.00, -2.03, -1.30, 1026.6, 70.8619870, 22.3208000, , 41.30, 1.15, 142.70, 1027.82, -0.60, 0.0, 27.87, 55.59, 58.3, 327, 11.9, 33.52770, 34.19000, 5.8648, 34.1900, 33.5277, 129.20, 4.5830, 1467.99, 112.00, 104.9, 10.49, 12.3, 52
2008/04/07, 00:47:29, 133.30, 0.00, -2.06, -1.40, 1026.9, 70.8619250, 22.3204950, , 223.40, 0.66, 143.80, 1027.54, -0.30, 0.0, 27.87, 53.98, 60.2, 335, 13.2, 33.52430, 34.18990, 5.8611, 34.1899, 33.5243, 127.40, 4.5821, 1467.99, 110.80, 115.0, 9.66, 13.1, 52
2008/04/07, 00:48:30, 133.60, 0.00, -2.03, -1.40, 1026.9, 70.8618500, 22.3201830, , 241.30, 1.43, 142.40, 1027.86, -0.50, 0.0, 27.87, 54.19, 58.8, 326, 10.9, 33.52200, 34.18940, 5.8590, 34.1894, 33.5220, 128.60, 4.5812, 1467.98, 113.10, 109.5, 9.36, 10.5, 52
2008/04/07, 00:49:30, 133.10, 0.00, -1.92, -1.40, 1027.0, 70.8617870, 22.3199170, , 232.20, 0.82, 144.00, 1027.80, -0.30, 0.0, 27.87, 56.73, 58.5, 331, 10.4, 33.52250, 34.19010, 5.8588, 34.1901, 33.5225, 128.00, 4.5806, 1467.98, 110.90, 114.4, 8.45, 10.1, 52
2008/04/07, 00:50:29, 133.40, 0.00, -2.06, -1.30, 1026.9, 70.8617270, 22.3196530, , 214.00, 0.82, 143.80, 1027.81, -0.40, 0.0, 27.87, 54.68, 60.4, 327, 11.4, 33.52140, 34.18970, 5.8580, 34.1897, 33.5214, 128.30, 4.5803, 1467.98, 107.20, 107.3, 9.35, 12.0, 52
2008/04/07, 00:51:29, 132.40, 0.00, -2.06, -1.40, 1026.8, 70.8616620, 22.3193600, , 276.10, 0.48, 142.30, 1027.76, -0.40, 0.0, 27.87, 54.68, 56.7, 328, 12.1, 33.52110, 34.18980, 5.8576, 34.1898, 33.5211, 128.30, 4.5801, 1467.98, 116.20, 107.7, 9.97, 11.8, 52
2008/04/07, 00:52:30, 132.10, 0.00, -2.17, -1.40, 1027.0, 70.8615720, 22.3191070, , 342.60, 0.74, 144.10, 1027.62, -0.50, 0.0, 27.87, 54.30, 55.8, 328, 10.2, 33.52020, 34.18920, 5.8572, 34.1892, 33.5202, 128.60, 4.5801, 1467.98, 115.90, 107.9, 10.53, 10.5, 52
2008/04/07, 00:53:29, 131.80, 0.00, -2.00, -1.40, 1026.8, 70.8615220, 22.3187850, , 25.60, 1.10, 142.70, 1027.91, -0.40, 0.0, 27.87, 54.84, 60.1, 329, 11.7, 33.51950, 34.18860, 5.8570, 34.1886, 33.5195, 127.60, 4.5792, 1467.97, 97.50, 106.7, 9.89, 12.2, 52
2008/04/07, 00:54:29, 131.90, 0.00, -2.11, -1.40, 1026.9, 70.8614220, 22.3185280, , 36.40, 0.81, 143.10, 1027.82, -0.40, 0.0, 27.87, 55.72, 56.7, 329, 11.1, 33.52220, 34.18840, 5.8602, 34.1884, 33.5222, 128.30, 4.5783, 1467.97, 106.50, 107.8, 9.41, 11.1, 52
2008/04/07, 00:55:30, 132.20, 0.00, -2.03, -1.40, 1026.7, 70.8613450, 22.3182500, , 226.40, 0.39, 142.40, 1027.54, -0.50, 0.0, 27.87, 54.46, 59.7, 333, 10.5, 33.51650, 34.18820, 5.8540, 34.1882, 33.5165, 129.20, 4.5780, 1467.97, 105.40, 112.0, 9.50, 10.9, 52
2008/04/07, 00:56:29, 132.30, 0.00, -2.06, -1.40, 1026.9, 70.8612820, 22.3179630, , 193.00, 1.00, 143.30, 1027.67, -0.50, 0.0, 27.87, 56.84, 59.4, 325, 10.7, 33.51630, 34.18790, 5.8541, 34.1879, 33.5163, 128.60, 4.5774, 1467.96, 109.40, 106.6, 9.52, 10.5, 52
2008/04/07, 00:57:29, 131.40, 0.00, -2.06, -1.50, 1026.8, 70.8612120, 22.3176380, , 261.80, 0.88, 142.60, 1027.76, -0.50, 0.0, 27.87, 54.41, 59.3, 327, 11.0, 33.51610, 34.18680, 5.8550, 34.1868, 33.5161, 129.50, 4.5768, 1467.96, 109.30, 108.7, 9.31, 10.9, 52
2008/04/07, 00:58:29, 132.60, 0.00, -2.00, -1.40, 1026.8, 70.8611330, 22.3173130, , 320.70, 0.98, 143.20, 1027.62, -0.50, 0.0, 27.87, 57.05, 62.0, 336, 11.5, 33.51680, 34.18790, 5.8547, 34.1879, 33.5168, 129.50, 4.5747, 1467.95, 102.80, 114.2, 9.14, 11.9, 52
2008/04/07, 00:59:29, 132.10, 0.00, -2.06, -1.40, 1027.1, 70.8610730, 22.3170680, , 220.20, 2.44, 142.20, 1027.45, -0.30, 0.0, 27.87, 56.09, 61.4, 335, 11.4, 33.51650, 34.18670, 5.8555, 34.1867, 33.5165, 129.50, 4.5734, 1467.95, 117.10, 118.1, 9.01, 11.5, 52
2008/04/07, 01:00:29, 132.30, 0.00, -2.03, -1.40, 1026.9, 70.8610000, 22.3167820, , 182.30, 0.86, 143.10, 1027.77, -0.50, 0.0, 27.87, 57.24, 58.7, 327, 11.7, 33.51730, 34.18710, 5.8560, 34.1871, 33.5173, 128.60, 4.5719, 1467.94, 109.80, 106.0, 8.58, 11.7, 52
2008/04/07, 01:01:29, 131.20, 0.00, -2.06, -1.40, 1027.0, 70.8609230, 22.3164800, , 218.80, 0.47, 142.90, 1027.72, -0.60, 0.0, 27.87, 56.04, 56.9, 328, 11.3, 33.51880, 34.18720, 5.8576, 34.1872, 33.5188, 128.30, 4.5712, 1467.94, 106.90, 107.8, 8.89, 11.1, 52
2008/04/07, 01:02:29, 132.10, 0.00, -2.03, -1.40, 1026.7, 70.8608370, 22.3161150, , 233.00, 1.42, 143.40, 1027.71, -0.70, 0.0, 27.87, 54.78, 55.9, 326, 10.6, 33.52070, 34.18730, 5.8597, 34.1873, 33.5207, 128.90, 4.5708, 1467.94, 108.70, 106.5, 10.30, 10.5, 52
2008/04/07, 01:03:30, 132.30, 0.00, -2.00, -1.50, 1026.8, 70.8607480, 22.3157880, , 220.00, 0.58, 143.70, 1027.74, -0.80, 0.0, 27.87, 52.56, 56.4, 325, 10.7, 33.51910, 34.18660, 5.8586, 34.1866, 33.5191, 130.80, 4.5711, 1467.94, 99.10, 103.3, 10.47, 10.9, 52
2008/04/07, 01:04:29, 131.70, 0.00, -2.06, -1.50, 1026.7, 70.8606630, 22.3154820, , 220.00, 1.07, 143.40, 1027.55, -0.40, 0.0, 27.87, 54.94, 60.6, 330, 10.4, 33.51250, 34.18560, 5.8522, 34.1856, 33.5125, 128.90, 4.5719, 1467.94, 108.60, 113.5, 8.48, 10.2, 52
2008/04/07, 01:05:30, 131.80, 0.00, -1.86, -1.30, 1026.7, 70.8605750, 22.3150770, , 250.40, 1.11, 142.50, 1027.67, -0.50, 0.0, 27.87, 57.40, 60.2, 325, 11.3, 33.50760, 34.18510, 5.8472, 34.1851, 33.5076, 130.80, 4.5726, 1467.94, 110.00, 107.8, 8.86, 10.6, 52
2008/04/07, 01:06:30, 131.30, 0.00, -1.94, -1.30, 1027.0, 70.8605150, 22.3147970, , 64.50, 0.71, 143.20, 1027.76, -0.30, 0.0, 27.87, 55.29, 57.4, 326, 11.4, 33.50780, 34.18460, 5.8479, 34.1846, 33.5078, 128.60, 4.5735, 1467.94, 103.60, 102.3, 9.84, 11.9, 52
2008/04/07, 01:07:29, 131.30, 0.00, -2.03, -1.30, 1026.8, 70.8604270, 22.3144930, , 51.00, 0.60, 142.90, 1027.63, -0.60, 0.0, 27.87, 55.24, 56.7, 334, 9.9, 33.50730, 34.18450, 5.8474, 34.1845, 33.5073, 130.10, 4.5739, 1467.95, 107.00, 110.5, 9.88, 10.4, 52
2008/04/07, 01:08:29, 132.10, 0.00, -2.03, -1.40, 1026.8, 70.8603520, 22.3142120, , 240.40, 1.29, 143.80, 1027.62, -0.40, 0.0, 27.87, 54.46, 58.5, 323, 11.7, 33.50670, 34.18480, 5.8466, 34.1848, 33.5067, 130.80, 4.5742, 1467.95, 108.90, 104.1, 8.72, 11.6, 52
2008/04/07, 01:09:29, 133.20, 0.00, -2.11, -1.40, 1027.0, 70.8602870, 22.3139250, , 149.30, 0.55, 145.00, 1027.68, -0.40, 0.0, 27.87, 55.27, 58.8, 331, 12.4, 33.51050, 34.18420, 5.8513, 34.1842, 33.5105, 131.30, 4.5752, 1467.95, 109.30, 109.9, 9.59, 12.8, 52
2008/04/07, 01:10:29, 132.40, 0.00, -2.08, -1.40, 1026.6, 70.8602250, 22.3136270, , 230.70, 2.21, 146.70, 1027.61, -0.30, 0.0, 27.87, 52.39, 56.9, 334, 11.6, 33.51030, 34.18580, 5.8496, 34.1858, 33.5103, 129.80, 4.5763, 1467.96, 122.90, 119.2, 9.73, 11.5, 52
2008/04/07, 01:11:29, 133.30, 0.00, -2.11, -1.40, 1026.7, 70.8601530, 22.3132930, , 62.00, 0.36, 146.20, 1027.68, -0.20, 0.0, 27.87, 52.10, 59.7, 336, 12.2, 33.51270, 34.18490, 5.8530, 34.1849, 33.5127, 129.20, 4.5774, 1467.96, 114.30, 116.4, 10.17, 12.8, 52
2008/04/07, 01:12:30, 132.80, 0.00, -2.06, -1.40, 1026.7, 70.8600630, 22.3129220, , 199.60, 1.32, 145.60, 1027.79, -0.50, 0.0, 27.87, 51.40, 55.8, 329, 12.3, 33.51270, 34.18560, 5.8525, 34.1856, 33.5127, 132.30, 4.5773, 1467.96, 113.20, 111.6, 9.08, 12.6, 52
2008/04/07, 01:13:30, 132.90, 0.00, -2.14, -1.50, 1026.8, 70.8599800, 22.3125380, , 77.40, 1.27, 145.50, 1027.71, -0.50, 0.0, 27.87, 50.42, 52.8, 324, 10.8, 33.51630, 34.18620, 5.8558, 34.1862, 33.5163, 130.40, 4.5769, 1467.96, 104.90, 102.0, 10.84, 11.7, 52
2008/04/07, 01:14:29, 131.10, 0.00, -2.08, -1.50, 1026.7, 70.8598780, 22.3120880, , 241.70, 1.53, 146.90, 1027.58, -0.40, 0.0, 27.87, 53.36, 54.9, 325, 11.3, 33.51880, 34.18530, 5.8594, 34.1853, 33.5188, 129.80, 4.5748, 1467.95, 111.30, 113.3, 8.86, 10.4, 52
2008/04/07, 01:15:29, 131.80, 0.00, -2.08, -1.40, 1026.8, 70.8598130, 22.3117350, , 244.30, 0.71, 145.60, 1027.79, -0.40, 0.0, 27.87, 53.71, 58.8, 332, 12.1, 33.52020, 34.18550, 5.8609, 34.1855, 33.5202, 129.20, 4.5719, 1467.94, 107.40, 112.2, 9.39, 12.2, 52
2008/04/07, 01:16:29, 133.40, 0.00, -2.08, -1.40, 1026.7, 70.8597320, 22.3113850, , 129.20, 0.46, 145.70, 1027.51, -0.50, 0.0, 27.87, 53.71, 55.8, 332, 11.2, 33.52340, 34.18670, 5.8633, 34.1867, 33.5234, 129.50, 4.5699, 1467.93, 109.80, 111.8, 10.22, 11.6, 52
2008/04/07, 01:17:29, 131.70, 0.00, -2.06, -1.40, 1026.7, 70.8596500, 22.3109930, , 294.10, 1.58, 145.30, 1027.49, -0.60, 0.0, 27.87, 54.09, 57.3, 325, 9.4, 33.52050, 34.18630, 5.8604, 34.1863, 33.5205, 129.80, 4.5674, 1467.92, 114.90, 110.7, 9.55, 9.4, 52
2008/04/07, 01:18:30, 133.80, 0.00, -2.03, -1.40, 1026.8, 70.8595720, 22.3107050, , 146.10, 0.43, 145.40, 1027.67, -0.40, 0.0, 27.87, 55.02, 56.8, 328, 10.7, 33.52220, 34.18640, 5.8622, 34.1864, 33.5222, 130.80, 4.5640, 1467.91, 107.60, 108.7, 9.92, 11.5, 52
2008/04/07, 01:19:29, 132.80, 0.00, -2.14, -1.50, 1026.5, 70.8595150, 22.3104120, , 7.30, 0.18, 146.90, 1027.45, -0.30, 0.0, 27.87, 52.37, 57.1, 338, 12.4, 33.52310, 34.18640, 5.8632, 34.1864, 33.5231, 128.30, 4.5602, 1467.89, 116.00, 118.4, 9.91, 12.8, 52
2008/04/07, 01:20:29, 132.60, 0.00, -2.14, -1.50, 1026.7, 70.8594530, 22.3101470, , 247.20, 1.31, 146.10, 1027.59, -0.60, 0.0, 27.87, 52.37, 54.5, 327, 11.9, 33.52470, 34.18590, 5.8655, 34.1859, 33.5247, 131.30, 4.5580, 1467.88, 124.40, 112.3, 9.30, 11.8, 52
2008/04/07, 01:21:30, 131.90, 0.00, -2.19, -1.50, 1026.6, 70.8593770, 22.3098770, , 239.60, 2.18, 145.80, 1027.81, -0.50, 0.0, 27.87, 51.48, 56.6, 331, 11.1, 33.51800, 34.18480, 5.8592, 34.1848, 33.5180, 131.00, 4.5558, 1467.87, 119.70, 116.0, 8.40, 10.3, 52
2008/04/07, 01:22:29, 133.50, 0.00, -2.11, -1.50, 1026.7, 70.8593220, 22.3096000, , 227.60, 1.35, 146.00, 1027.50, -0.60, 0.0, 27.87, 50.21, 54.3, 330, 12.3, 33.51340, 34.18420, 5.8546, 34.1842, 33.5134, 133.80, 4.5536, 1467.86, 121.90, 114.6, 8.87, 12.4, 52
2008/04/07, 01:23:29, 134.20, 0.00, -2.14, -1.50, 1026.8, 70.8592600, 22.3092530, , 148.80, 0.55, 146.90, 1027.51, -0.50, 0.0, 27.87, 51.31, 55.7, 331, 13.4, 33.52020, 34.18360, 5.8628, 34.1836, 33.5202, 132.50, 4.5521, 1467.86, 119.40, 113.1, 10.90, 13.9, 52
2008/04/07, 01:24:29, 134.30, 0.00, -2.22, -1.60, 1026.7, 70.8591880, 22.3088970, , 202.20, 1.58, 140.70, 1027.81, -0.40, 0.0, 27.87, 48.47, 52.1, 325, 11.8, 33.50850, 34.18300, 5.8503, 34.1830, 33.5085, 134.40, 4.5511, 1467.85, 112.20, 102.8, 9.96, 12.2, 52
2008/04/07, 01:25:29, 133.60, 0.00, -2.11, -1.50, 1026.7, 70.8590850, 22.3085470, , 6.80, 1.58, 113.40, 1027.63, -0.10, 0.0, 27.87, 50.88, 54.1, 337, 11.5, 33.50660, 34.18340, 5.8477, 34.1834, 33.5066, 136.80, 4.5498, 1467.85, 86.90, 85.9, 10.38, 12.1, 52
2008/04/07, 01:26:29, 133.30, 0.00, -2.11, -1.50, 1026.6, 70.8590830, 22.3084580, , 206.80, 0.19, 93.90, 1027.49, -0.40, 0.0, 27.87, 48.74, 52.4, 26, 13.4, 33.49920, 34.18290, 5.8400, 34.1829, 33.4992, 135.30, 4.5479, 1467.84, 120.00, 121.2, 10.14, 13.5, 52
2008/04/07, 01:27:29, 268.50, 0.00, -2.03, -1.50, 1026.7, 70.8592320, 22.3085580, , 356.20, 1.22, 88.50, 1027.69, -0.30, 0.0, 27.87, 50.26, 51.9, 17, 8.6, 33.49380, 34.18270, 5.8342, 34.1827, 33.4938, 135.30, 4.5467, 1467.83, 130.00, 105.1, 9.80, 8.5, 52
2008/04/07, 01:28:29, 133.90, 0.00, -2.08, -1.50, 1026.8, 70.8594580, 22.3085430, , 19.20, 1.03, 90.70, 1027.64, -0.40, 0.0, 27.87, 50.91, 52.7, 25, 12.5, 33.49580, 34.18180, 5.8372, 34.1818, 33.4958, 135.90, 4.5457, 1467.83, 135.30, 116.1, 9.96, 12.9, 52
2008/04/07, 01:29:29, 133.70, 0.00, -2.06, -1.50, 1026.7, 70.8597070, 22.3085420, , 306.70, 1.83, 90.50, 1027.83, -0.50, 0.0, 27.87, 51.64, 54.0, 32, 11.4, 33.49050, 34.18170, 5.8314, 34.1817, 33.4905, 137.50, 4.5444, 1467.82, 132.30, 120.9, 10.06, 12.1, 52
2008/04/07, 01:30:29, 133.30, 0.00, -2.11, -1.40, 1026.9, 70.8599330, 22.3085670, , 76.40, 0.21, 89.30, 1027.63, -0.20, 0.0, 27.87, 50.56, 55.4, 22, 7.2, 33.48840, 34.18230, 5.8286, 34.1823, 33.4884, 138.70, 4.5429, 1467.82, 138.00, 114.3, 9.99, 7.3, 52